Temperature
18 18 18 17 17 17 17 17 17 16 16 16 16 16 16 16 16 16 16 16 16 16 16 16 16 16 15 15 15 15 15 15 15 15 15 15 15 15
18 18 18 18 17 17 17 17 17 16 16 16 16 16 16 16 16 16 15 15 15 15 15 15 15 15 15 15 15 15 15 15 15 15 15 15 15 15
18 18 18 17 17 17 17 17 17 16 16 16 16 16 16 16 16 15 15 15 15 15 15 15 15 15 15 15 15 15 15 15 14 14 14 14 14 14
18 18 18 17 17 17 17 17 17 16 16 16 16 15 15 15 15 15 15 15 15 15 15 15 15 14 14 14 14 14 14 14 14 14 14 14 14 14
18 18 17 17 17 17 17 17 16 16 16 16 15 15 15 15 15 15 14 14 14 14 14 14 14 14 14 14 14 14 14 14 14 14 14 13 13 13
18 17 17 17 17 17 17 17 16 16 16 15 15 15 15 14 14 14 14 14 14 14 14 14 14 14 14 14 14 13 13 13 13 13 13 13 13 13
18 18 17 17 17 17 17 16 16 16 15 15 15 15 14 14 14 14 14 14 14 14 13 13 13 13 13 13 13 13 13 13 13 12 12 12 12 12
17 17 17 17 17 17 16 16 16 16 15 15 15 14 14 14 14 14 13 13 13 13 13 13 13 13 13 13 12 12 12 12 12 12 12 12 12 11
17 17 17 17 16 16 16 16 16 15 15 15 14 14 14 14 14 13 13 13 13 13 13 13 13 12 12 12 12 12 12 11 11 11 11 11 11 11
17 17 16 16 16 16 16 15 15 15 15 14 14 14 14 13 13 13 13 13 13 12 12 12 12 12 12 12 12 11 11 11 11 11 11 11 10 10
16 16 16 16 16 15 15 15 15 15 14 14 14 14 13 13 13 13 13 13 12 12 12 12 12 12 12 11 11 11 11 11 10 10 10 10 10 10
16 16 15 15 15 15 15 15 14 14 14 14 14 13 13 13 13 13 12 12 12 12 12 11 11 11 11 11 11 11 10 10 10 10 10 10 10 10
15 15 15 15 15 15 14 14 14 14 13 13 13 13 13 12 12 12 12 12 12 11 11 11 11 11 11 11 10 10 10 10 10 10 9 9 9 9
15 15 14 14 14 14 14 13 13 13 13 13 13 12 12 12 12 12 12 11 11 11 11 11 11 11 11 10 10 10 10 10 9 9 9 9 9 9
14 14 14 14 13 13 13 13 13 12 12 12 12 12 12 12 12 11 11 11 11 11 11 10 10 10 10 10 10 10 10 9 9 9 9 9 9 8
14 13 13 13 13 12 12 12 12 12 12 12 12 12 11 11 11 11 11 11 11 11 10 10 10 10 10 10 10 9 9 9 9 9 9 9 8 8
13 13 13 12 12 12 12 12 12 11 11 11 11 11 11 11 11 11 11 10 10 10 10 10 10 10 9 9 9 9 9 9 9 9 9 8 8 8
13 13 12 12 12 12 12 12 11 11 11 11 11 11 11 11 10 10 10 10 10 10 10 10 9 9 9 9 9 9 9 9 9 8 8 8 8 8
12 12 12 12 11 11 11 11 11 11 11 11 11 11 10 10 10 10 10 10 10 10 10 9 9 9 9 9 9 9 8 8 8 8 8 8 8 8
12 11 11 11 11 11 11 11 11 11 11 10 10 10 10 10 10 10 10 10 9 9 9 9 9 9 8 8 8 8 8 8 8 8 8 8 8 7
11 11 11 11 11 11 11 11 10 10 10 10 10 10 10 10 10 10 9 9 9 9 9 9 9 8 8 8 8 8 8 8 8 7 7 7 7 7
11 11 11 11 10 10 10 10 10 10 10 10 9 9 9 9 9 9 9 9 9 9 9 8 8 8 8 8 8 8 8 7 7 7 7 7 7 6
11 11 10 10 10 10 10 10 9 9 9 9 9 9 9 9 9 9 9 8 8 8 8 8 8 7 7 7 7 7 7 7 7 7 7 7 6 6
Wind_Speed
3 3 3 2 2 2 3 3 3 2 2 1 1 1 0 1 1 1 2 2 2 2 3 3 3 4 5 5 5 6 6 6 6 7 8 8 8 8
3 3 3 2 1 1 2 2 3 4 2 2 2 2 1 1 1 1 1 1 2 1 1 1 2 3 3 4 4 4 4 5 5 5 5 6 6 6
3 3 3 2 1 1 1 1 2 3 2 2 1 1 0 0 1 1 1 1 1 1 1 1 1 1 1 1 2 2 3 3 4 4 4 4 4 4
5 4 3 2 2 1 1 1 1 2 3 2 1 1 1 1 1 1 0 0 0 1 1 2 2 2 1 1 1 0 1 2 2 3 3 3 3 3
5 5 4 3 2 2 1 1 1 1 2 2 1 1 1 1 0 1 0 0 1 1 1 1 2 1 1 1 0 1 1 2 2 2 1 1 1 1
5 5 4 4 4 3 2 2 1 1 1 2 1 0 1 1 0 0 0 1 1 1 1 0 0 0 0 0 1 1 1 1 1 1 1 0 0 0
4 4 4 5 5 4 2 2 2 2 1 1 1 0 1 0 1 1 1 1 1 0 0 1 0 0 1 1 1 1 1 1 1 1 1 1 1 1
5 4 3 3 3 3 3 4 4 4 3 2 2 2 3 2 2 1 1 1 1 1 1 1 0 1 2 2 2 1 1 0 1 2 3 2 2 2
5 4 3 3 3 2 2 2 2 2 4 4 4 4 3 4 2 2 2 2 3 2 1 1 1 1 2 2 3 3 2 1 1 1 2 3 3 3
6 6 5 4 4 4 3 2 1 1 2 3 4 4 3 3 4 4 4 2 1 1 2 1 1 2 1 1 2 3 3 2 1 1 1 2 2 2
5 5 6 5 5 6 4 3 1 1 0 2 3 2 3 2 3 2 2 2 0 2 1 1 1 1 1 1 2 3 3 3 2 1 1 0 1 1
4 4 6 6 7 8 5 5 4 3 1 1 0 1 1 1 2 3 3 2 1 1 1 2 1 1 1 1 1 2 2 3 3 3 2 2 1 1
4 4 4 7 7 8 6 5 6 4 3 3 1 0 1 1 1 1 2 3 3 2 3 2 2 1 2 1 2 2 2 2 2 2 3 4 3 2
5 4 4 7 7 7 6 5 5 4 2 2 1 1 2 2 2 2 2 2 3 3 3 3 2 3 2 1 2 2 2 2 2 2 3 4 4 4
5 6 5 7 6 5 6 6 5 3 2 2 3 3 3 3 1 0 1 1 1 1 1 2 2 2 2 2 2 1 1 2 3 2 3 3 3 3
4 4 5 6 4 4 3 3 3 3 4 4 3 3 1 1 1 1 1 1 0 2 2 1 2 3 2 2 2 1 2 2 2 3 3 3 4 4
5 3 2 2 3 3 3 3 3 2 3 3 2 2 1 1 1 1 1 1 1 1 2 2 1 1 2 3 2 2 2 2 2 2 2 2 3 4
6 4 4 5 5 5 4 4 3 4 3 3 3 3 3 2 2 1 1 2 2 2 2 2 0 1 2 2 4 3 2 2 2 2 2 2 3 4
5 5 5 5 5 5 4 4 4 4 3 3 3 3 3 3 2 2 2 2 2 2 2 2 1 2 1 3 4 4 4 2 1 1 2 2 3 4
5 6 5 5 5 5 5 4 4 3 3 3 3 3 3 3 3 3 3 3 3 3 2 2 2 3 5 5 3 3 4 3 2 2 2 2 2 3
5 5 5 5 5 5 5 5 4 4 3 3 3 3 3 3 4 4 3 4 3 3 3 4 5 4 3 1 0 2 3 4 4 3 2 1 1 2
4 4 4 5 5 4 4 4 4 3 3 3 3 3 3 3 4 4 4 4 4 4 4 3 1 1 1 1 2 3 3 3 3 3 3 4 3 3
4 4 4 4 4 4 4 4 4 3 3 3 3 3 3 3 3 3 3 3 3 3 2 1 0 0 1 2 2 2 3 3 2 1 2 4 4 5
Wind_Direction
217 217 218 225 208 204 191 180 178 228 273 274 302 318 62 134 151 167 217 265 267 260 245 233 231 238 239 237 240 247 254 261 266 265 263 264 261 257
205 199 208 222 217 203 195 192 177 180 217 240 234 242 224 144 222 207 231 274 290 303 233 211 214 225 229 233 236 246 254 257 259 262 257 256 247 245
201 192 205 198 198 203 183 177 180 167 199 257 252 254 194 246 326 244 227 222 250 249 210 176 162 169 188 217 231 243 251 252 254 256 250 243 235 241
194 188 202 196 192 201 188 194 197 180 177 227 269 251 230 234 231 222 187 149 199 273 183 140 129 129 130 123 132 208 259 266 264 260 257 248 240 244
193 194 203 188 199 209 201 203 219 193 167 182 242 262 270 314 336 342 88 42 35 29 98 147 162 162 148 137 86 347 324 301 291 287 285 252 232 231
191 192 196 190 194 196 201 211 205 167 152 161 193 265 285 295 141 296 327 311 307 34 62 55 225 232 283 46 29 15 351 334 322 320 328 322 318 294
187 191 195 189 185 186 191 187 171 167 161 168 192 217 263 280 247 236 221 292 296 301 358 326 322 332 304 308 319 340 11 31 9 14 35 39 30 23
190 194 194 181 176 174 177 174 167 171 180 179 200 207 231 229 226 206 185 143 277 269 171 272 185 270 264 250 262 259 256 151 94 60 55 51 43 46
186 185 192 183 165 175 185 179 197 187 181 179 195 218 216 218 204 208 203 198 221 232 162 249 261 261 261 264 245 225 218 200 145 85 59 53 57 61
187 187 181 184 191 181 173 175 215 240 204 187 193 211 215 215 203 202 205 207 285 274 140 196 259 259 279 267 246 215 208 200 173 118 66 45 47 51
191 188 185 190 196 175 163 176 202 285 239 164 185 202 217 218 178 130 125 124 259 273 198 158 219 269 301 280 266 236 225 222 217 208 216 299 32 57
191 191 190 192 187 177 177 177 191 220 193 151 54 355 325 306 167 164 170 160 172 245 236 158 175 126 290 283 263 260 241 232 227 233 230 227 183 118
196 204 207 195 191 183 180 189 202 193 184 182 188 252 321 311 282 208 185 172 174 222 220 160 166 163 178 258 286 252 222 222 222 246 237 226 208 174
204 206 205 195 193 187 187 193 180 159 151 161 191 233 242 252 256 243 218 203 199 206 205 166 164 176 170 193 269 274 247 223 206 222 233 227 226 223
208 200 198 195 189 189 189 178 165 162 165 195 225 240 242 240 230 268 333 34 16 289 190 182 165 169 165 186 223 244 259 258 225 221 220 211 212 218
198 189 179 175 180 189 192 196 191 187 189 210 229 247 254 254 218 191 175 152 74 315 314 284 185 161 171 183 179 230 235 240 243 233 220 222 225 224
176 162 169 180 191 206 210 211 204 195 206 214 212 225 226 224 238 216 168 148 160 237 282 304 304 214 180 172 178 229 238 253 243 215 204 230 239 229
159 181 199 201 204 204 204 209 209 209 214 207 202 206 213 216 223 217 182 181 199 224 234 243 286 18 8 309 211 204 225 240 252 217 189 218 253 249
169 193 202 205 205 199 199 201 212 218 206 197 202 210 211 212 204 209 209 204 216 222 228 217 177 161 197 266 281 216 200 228 234 228 218 215 243 256
194 201 203 203 201 198 199 204 209 211 201 199 205 215 211 206 207 215 215 212 213 212 227 229 211 204 207 219 235 260 225 198 200 226 244 241 260 284
202 203 204 201 198 195 196 196 194 195 192 193 204 214 216 210 216 220 217 213 204 204 216 236 242 235 207 130 350 297 276 238 209 207 211 228 284 300
195 194 198 197 193 193 191 186 185 186 189 200 210 218 221 213 215 219 216 210 212 210 218 239 255 115 110 168 237 255 273 295 279 251 216 208 194 218
195 188 186 186 185 183 182 177 179 192 202 207 214 222 220 216 217 216 213 208 203 204 201 213 287 90 204 209 230 248 266 273 278 296 295 274 256 252
Height
1530 1530 1530 1530 1530 1529 1529 1529 1529 1527 1526 1526 1526 1525 1525 1524 1523 1522 1522 1520 1519 1518 1517 1517 1516 1516 1516 1515 1515 1515 1515 1515 1515 1515 1515 1515 1515 1515
1528 1527 1527 1527 1527 1527 1526 1526 1526 1525 1524 1523 1523 1523 1523 1522 1521 1520 1519 1518 1517 1516 1515 1514 1513 1512 1512 1511 1511 1511 1510 1510 1510 1510 1510 1510 1510 1510
1525 1525 1524 1524 1524 1524 1523 1523 1523 1522 1521 1521 1521 1521 1520 1519 1519 1518 1517 1516 1515 1514 1513 1512 1511 1510 1509 1509 1508 1507 1507 1507 1506 1506 1506 1506 1506 1506
1522 1522 1521 1521 1521 1521 1520 1520 1520 1519 1519 1518 1518 1518 1517 1517 1516 1515 1515 1514 1513 1512 1511 1510 1509 1508 1507 1506 1505 1505 1504 1504 1503 1502 1502 1502 1502 1502
1519 1519 1519 1518 1518 1518 1517 1517 1517 1516 1516 1516 1515 1515 1515 1514 1514 1513 1512 1511 1511 1510 1509 1508 1507 1506 1505 1504 1503 1502 1502 1501 1500 1499 1499 1498 1498 1498
1515 1515 1516 1515 1515 1515 1515 1514 1514 1514 1513 1513 1513 1512 1512 1512 1511 1511 1509 1509 1509 1508 1507 1507 1506 1505 1504 1502 1501 1500 1500 1499 1498 1497 1496 1495 1495 1495
1512 1512 1512 1512 1511 1512 1512 1511 1511 1511 1510 1510 1510 1510 1509 1509 1508 1508 1508 1507 1507 1506 1505 1505 1504 1503 1502 1501 1500 1499 1498 1497 1496 1495 1494 1493 1493 1492
1508 1508 1508 1508 1508 1508 1509 1509 1509 1508 1508 1507 1507 1507 1506 1506 1506 1505 1505 1505 1504 1505 1504 1503 1502 1501 1500 1499 1499 1498 1497 1496 1495 1494 1493 1492 1491 1491
1504 1504 1504 1504 1505 1505 1505 1505 1505 1505 1505 1505 1505 1504 1504 1503 1503 1503 1503 1502 1502 1502 1502 1500 1500 1499 1499 1498 1497 1496 1496 1495 1493 1492 1491 1491 1490 1489
1500 1500 1501 1501 1501 1501 1501 1501 1501 1501 1502 1502 1502 1501 1501 1501 1500 1500 1500 1500 1500 1500 1499 1499 1498 1498 1497 1497 1496 1495 1494 1493 1492 1491 1490 1490 1489 1488
1495 1496 1497 1497 1498 1498 1498 1498 1498 1498 1499 1499 1499 1498 1498 1498 1498 1497 1497 1497 1496 1497 1497 1497 1496 1495 1495 1495 1494 1494 1493 1492 1491 1490 1489 1489 1487 1486
1491 1491 1492 1493 1493 1494 1494 1494 1494 1495 1495 1496 1496 1495 1495 1495 1495 1495 1495 1494 1494 1494 1494 1494 1494 1493 1493 1493 1492 1492 1491 1490 1489 1488 1488 1487 1486 1485
1485 1486 1488 1489 1490 1490 1491 1491 1491 1492 1492 1493 1492 1492 1492 1492 1492 1493 1493 1493 1492 1492 1493 1492 1491 1491 1491 1490 1490 1489 1489 1488 1487 1486 1486 1485 1484 1483
1481 1482 1483 1485 1486 1486 1487 1488 1489 1489 1489 1489 1489 1489 1489 1489 1490 1490 1491 1491 1491 1491 1490 1490 1489 1489 1488 1487 1487 1487 1486 1486 1485 1484 1483 1483 1482 1481
1477 1478 1479 1481 1482 1483 1484 1484 1485 1485 1485 1486 1486 1486 1487 1487 1488 1488 1488 1488 1488 1488 1488 1487 1487 1486 1486 1485 1485 1484 1483 1483 1482 1482 1481 1480 1479 1478
1472 1473 1475 1477 1478 1479 1480 1481 1481 1482 1482 1483 1483 1484 1485 1485 1485 1485 1485 1485 1485 1485 1485 1485 1484 1484 1483 1483 1482 1481 1481 1480 1480 1479 1478 1477 1477 1476
1467 1469 1470 1471 1472 1474 1475 1476 1477 1478 1479 1479 1480 1481 1482 1482 1482 1482 1482 1482 1482 1481 1482 1482 1481 1481 1481 1480 1480 1479 1478 1478 1477 1476 1475 1474 1474 1473
1463 1464 1465 1466 1467 1468 1470 1471 1473 1474 1475 1476 1476 1477 1478 1478 1479 1479 1479 1479 1478 1478 1479 1479 1478 1478 1479 1478 1478 1476 1476 1475 1475 1474 1473 1472 1471 1471
1458 1458 1459 1461 1462 1464 1465 1467 1468 1469 1471 1472 1472 1473 1474 1475 1475 1475 1475 1475 1475 1476 1476 1476 1475 1475 1474 1474 1474 1474 1473 1472 1472 1471 1470 1469 1468 1468
1453 1454 1455 1456 1458 1460 1461 1462 1464 1465 1466 1467 1468 1469 1470 1470 1471 1471 1471 1471 1472 1472 1472 1472 1472 1471 1471 1471 1471 1471 1471 1470 1469 1468 1467 1466 1466 1466
1448 1449 1451 1452 1454 1455 1457 1458 1459 1460 1461 1463 1464 1465 1466 1466 1466 1467 1467 1468 1468 1468 1468 1468 1468 1469 1469 1469 1468 1467 1467 1467 1466 1465 1464 1464 1463 1462
1444 1445 1447 1448 1450 1451 1452 1453 1455 1456 1457 1458 1459 1460 1461 1461 1461 1462 1463 1463 1463 1464 1464 1465 1465 1465 1465 1465 1464 1463 1463 1463 1463 1463 1462 1461 1460 1458
1440 1441 1442 1444 1446 1447 1448 1449 1450 1451 1452 1453 1454 1455 1456 1456 1457 1457 1458 1458 1458 1459 1460 1461 1461 1461 1461 1461 1461 1460 1460 1460 1459 1459 1459 1458 1458 1457